Location: Madrid
(40.4000°N, 3.6830°W)
Time: 00:14:25
(UTC+01:00)

ISS - Pass Details

Date: 23 February 2020
Orbit: 415 x 422 km, 51.6° (Epoch: 27 February)

Event Time Altitude Azimuth Distance (km) Brightness Sun altitude
Exits shadow 07:27:49 - 249° (WSW) 1,837 -1.0 -6.5°
Reaches altitude 10° 07:28:40 10° 252° (WSW) 1,496 -1.5 -6.4°
Maximum altitude 07:31:56 47° 328° (NNW) 566 -3.4 -5.8°
Drops below altitude 10° 07:35:13 10° 44° (NE) 1,507 -0.4 -5.1°
Sets 07:37:23 0° 50° (NE) 2,375 0.7 -4.7°
